GFSSW_con_3kmhel_021.txt.gz
Helicity
58 53 45 46 48 36 22 23 29 39 31 24 36 32 14 10 21 -157 -74 -0 34 50 35 -5 -47 -17 -28 104 181 125 93 133 97 63 10 51 108 108 151 190 115 23 104 26 39
70 63 56 51 46 44 40 23 16 31 42 30 18 34 20 10 -82 -17 225 79 12 56 -14 -19 -45 -8 8 -2 154 228 134 159 89 54 -36 64 89 33 47 181 100 131 71 40 88
68 71 69 61 55 50 43 43 38 34 21 29 17 19 27 13 -32 5 52 102 11 25 -22 -12 1 -1 84 92 111 176 112 111 58 62 -26 41 143 96 144 142 71 284 146 80 108
60 70 75 75 66 52 49 51 46 40 27 18 3 9 26 4 20 50 9 38 44 37 -27 -50 -35 -8 25 82 58 31 70 105 37 58 2 106 48 145 80 156 181 324 168 154 120
58 67 71 71 75 78 59 55 64 54 31 7 -12 -22 40 40 107 -9 45 41 43 13 -53 -62 -42 -14 1 111 93 -9 61 93 131 170 -7 110 47 156 99 258 251 251 86 166 123
38 50 59 58 64 76 93 77 50 49 36 2 -37 -75 18 77 49 41 145 127 27 -12 -67 -67 -51 -25 25 79 53 56 19 -2 66 192 65 159 12 101 139 217 252 274 122 81 9
43 45 50 57 61 73 90 89 83 43 13 -21 -77 -22 38 201 3 85 141 140 32 -28 -53 -40 25 9 -16 19 45 15 11 19 -8 12 42 389 212 153 111 227 288 279 148 43 -26
43 68 82 84 80 79 90 92 114 88 2 -62 -1 6 32 34 95 83 -46 3 50 9 -4 -8 -11 14 -34 23 30 6 -23 -25 27 9 58 287 54 -24 122 260 283 277 125 83 6
8 40 95 129 123 100 92 124 133 22 11 36 40 57 37 12 42 -10 19 -0 27 16 35 50 -3 -68 -7 -59 -61 -58 -27 3 45 -17 83 201 209 66 120 222 251 295 178 114 34
28 30 64 134 158 133 116 169 29 55 52 53 78 45 9 32 24 34 -15 -4 -14 -17 -27 -4 43 -40 -127 -99 -11 -73 -85 8 -16 43 209 192 121 139 37 161 220 277 235 138 77
11 50 77 129 171 163 68 64 37 51 25 69 98 87 -34 23 -3 41 7 18 -6 -60 -39 -40 42 -0 17 -53 -72 -64 -30 17 71 71 334 200 170 145 111 60 100 324 242 268 132
65 67 85 156 205 224 24 43 52 62 -46 36 49 92 41 11 -15 -29 104 55 19 -10 -25 -37 3 -43 76 38 -39 -74 -74 -43 -17 140 266 190 323 103 12 36 115 266 292 305 256
99 129 125 164 291 95 78 138 114 110 62 -31 150 96 142 -27 -80 8 52 121 74 11 -3 3 21 -10 -28 27 39 -59 -99 -81 -63 14 234 220 200 40 -102 91 2 65 244 289 304
98 120 124 165 100 111 196 251 128 76 47 39 101 47 68 43 -1 -67 89 33 33 67 -15 22 -13 -7 -32 -39 -29 2 -75 2 38 -34 115 308 25 -9 -44 -19 -26 -3 195 271 293
76 104 104 119 107 115 177 156 171 144 131 41 40 61 86 380 125 41 -57 38 87 47 76 42 18 -26 -34 -21 -62 -55 30 -47 79 42 234 81 47 27 115 85 -89 103 248 245 264
84 97 81 62 39 192 247 305 219 177 157 97 174 144 176 69 59 182 22 -20 72 49 22 -17 13 -35 -62 -88 34 -24 67 29 49 22 70 165 79 84 153 179 132 180 204 253 236
101 102 88 56 129 59 117 222 261 301 171 77 158 215 101 144 65 -53 35 33 73 148 57 -14 -29 -85 19 -64 -43 13 35 -2 57 64 31 55 153 160 -65 70 276 229 136 187 214
84 138 75 88 78 106 186 331 372 269 192 -7 138 91 100 41 91 61 100 176 87 69 143 73 -26 -53 -76 -55 -68 34 13 69 154 78 87 40 161 53 189 111 252 285 138 249 236
48 33 61 98 18 133 247 374 444 260 207 207 65 191 155 126 82 60 43 189 156 119 99 138 38 47 -31 -101 -16 -78 63 -28 78 60 101 82 79 14 106 118 117 308 205 128 153
30 -25 66 96 -11 130 198 350 315 333 374 441 403 337 475 166 270 139 97 73 184 152 82 75 115 77 -63 -7 -22 50 43 127 35 68 65 38 82 9 82 168 291 204 92 126 112
-16 -15 45 79 -2 128 241 230 114 158 181 199 183 254 331 165 181 218 147 122 85 173 162 95 28 32 30 42 41 40 16 10 130 64 95 107 39 -71 21 233 294 205 149 175 61
23 47 77 32 370 218 209 86 87 118 126 163 90 188 241 251 79 140 196 133 97 161 164 245 113 83 -22 21 141 85 171 99 124 147 135 100 -4 -29 69 79 187 406 284 89 111
44 79 86 79 283 237 158 118 87 99 95 174 214 188 110 95 208 42 50 59 95 177 159 177 228 174 58 -40 -3 163 135 215 104 151 139 183 40 -127 -78 -15 4 243 157 28 57
34 73 64 112 111 104 123 203 219 137 165 160 129 134 141 211 91 -194 -50 -48 17 169 134 204 229 223 170 61 12 103 169 160 214 151 46 -38 54 49 10 53 125 88 41 209 34
33 48 81 114 140 217 179 62 219 161 160 121 97 189 357 278 377 75 -131 -282 -169 51 -40 38 103 237 201 118 60 8 72 180 199 204 201 88 81 41 25 58 53 90 107 73 34
63 44 34 11 53 121 171 217 172 169 124 213 148 60 126 144 277 256 143 102 -245 28 37 98 177 164 204 134 82 57 27 60 153 152 140 106 52 98 22 64 102 114 129 184 40
78 54 30 14 21 56 135 246 200 1 35 85 112 150 181 105 -46 35 210 303 171 267 356 105 192 237 342 288 211 45 2 37 65 147 185 193 132 88 66 -25 30 76 85 108 93

GFSSW_con_3kmhel_024.txt.gz
Helicity
52 49 46 45 45 49 38 28 27 38 33 12 7 21 24 9 9 -47 -26 57 65 89 107 40 20 20 48 4 21 88 119 48 31 -19 43 79 103 67 90 117 -13 30 91 17 -32
56 58 55 52 45 40 44 39 36 25 30 25 2 9 15 3 -66 -3 235 141 60 60 76 77 15 31 57 32 -3 -19 -131 7 62 8 76 163 208 193 209 153 85 81 70 16 -18
47 51 56 50 46 40 39 37 33 37 37 18 9 2 3 2 -16 28 84 103 74 91 85 17 28 30 -15 12 53 91 78 109 -36 3 76 170 154 179 293 161 264 243 122 63 41
38 45 48 48 49 50 46 47 43 30 31 22 4 -2 2 -8 28 -3 69 32 41 62 55 76 -83 -86 -55 48 65 163 225 164 98 -28 111 168 211 237 234 169 307 243 143 101 88
40 46 56 61 62 55 48 45 45 32 17 11 -12 -16 32 11 138 -1 36 83 41 19 -25 -47 -94 -116 -74 0 13 162 120 173 114 -5 68 84 123 244 133 259 224 211 194 108 66
70 63 60 65 64 64 60 58 53 55 24 -19 -44 -44 52 40 36 55 41 41 52 39 -26 -8 9 -41 51 -7 -43 -16 6 3 56 138 21 152 -2 151 190 276 276 315 189 117 61
58 77 90 84 80 71 68 79 78 70 49 -21 -75 15 63 146 0 63 46 98 142 52 -12 -65 -49 19 -3 -49 -10 8 -30 -16 -20 23 48 164 166 165 307 333 283 308 180 140 58
35 49 80 105 103 85 84 94 123 89 21 -26 16 75 65 -4 12 -2 -20 -34 53 64 25 3 -4 -102 -132 30 -37 -21 -36 -10 -38 59 85 235 263 225 394 308 284 317 188 134 108
53 52 65 105 120 104 114 126 121 27 58 84 118 114 88 14 23 9 53 20 -38 -3 37 44 64 -118 16 -173 -75 32 -128 -24 0 37 105 46 146 109 251 327 247 199 225 147 102
104 112 117 145 158 138 136 161 7 37 68 73 103 68 16 -24 31 15 64 -28 -13 -4 -20 68 116 47 0 -38 -11 -54 0 -71 -42 -7 162 108 210 154 240 331 265 217 168 100 60
89 107 137 194 227 217 66 57 78 83 83 50 57 55 -54 69 69 23 62 0 -44 -14 -13 -6 59 -1 -10 -37 30 -36 -136 -102 -99 -17 128 162 204 282 361 272 265 378 341 207 70
89 105 134 207 279 256 59 97 103 81 -48 -9 41 91 88 18 30 66 73 78 28 30 19 -46 -24 53 121 144 72 -64 -142 -143 -144 -90 67 146 195 278 388 323 353 375 372 323 168
79 103 127 181 334 105 177 125 165 187 6 -34 188 123 143 58 37 -92 105 67 79 33 49 45 118 -57 46 50 58 -59 -131 -173 -120 -37 45 202 300 267 237 230 183 275 378 335 297
61 93 91 123 65 145 190 125 153 99 -18 -51 45 44 150 200 142 -53 59 114 132 92 28 -34 -32 27 -6 -53 -30 -116 -109 -80 -31 36 60 26 81 26 92 30 136 240 328 391 344
56 69 72 57 127 146 108 150 258 62 96 32 54 56 75 252 179 123 56 126 183 172 109 107 89 24 37 24 -56 -83 21 -46 -45 19 42 -90 42 70 69 -20 -24 114 292 360 384
71 98 83 -7 79 152 103 293 174 183 148 147 69 97 135 54 199 145 203 95 162 129 100 38 39 45 19 3 -12 -26 31 27 21 19 52 -68 -81 28 72 -25 -19 64 212 325 346
46 89 80 15 86 50 50 210 290 262 238 187 303 308 171 133 68 221 177 164 181 253 92 48 -19 63 25 37 -11 52 26 -7 10 54 -5 -23 82 -32 111 114 157 130 258 329 288
64 74 112 74 106 68 109 280 362 276 231 129 96 243 206 146 111 88 207 151 121 249 156 111 26 12 -1 43 2 -15 43 11 159 115 18 50 105 -71 81 171 277 210 213 362 217
24 48 108 202 118 158 229 402 367 364 364 385 148 268 392 345 316 217 112 181 137 216 219 155 97 75 52 48 43 -86 25 22 -11 48 128 69 115 24 56 95 165 181 229 301 208
-26 -7 96 207 182 210 278 426 325 336 426 396 310 323 574 558 498 413 260 157 183 137 176 154 118 49 37 77 15 63 59 81 136 -29 15 66 87 75 89 12 75 178 284 356 258
-25 -50 74 60 89 235 347 299 233 195 230 245 437 355 388 322 309 435 424 324 209 156 170 158 198 123 88 117 27 38 -2 95 91 84 4 -77 -122 21 -66 -13 52 192 333 362 352
-37 -8 78 125 241 267 230 171 122 129 207 175 136 205 130 106 167 316 289 255 304 559 235 73 135 137 112 54 69 19 53 97 152 210 121 39 -47 95 46 20 24 91 307 285 292
-25 38 60 122 297 273 239 278 248 203 208 153 179 120 -85 -137 62 29 282 181 27 109 386 449 112 183 171 101 21 83 39 17 221 235 93 99 -27 106 52 33 -67 36 140 198 247
2 -2 7 107 160 329 341 240 278 193 144 75 75 22 -17 -171 -67 -149 31 121 113 100 253 103 142 168 108 130 130 158 100 35 64 194 134 13 209 160 58 45 -38 4 56 148 264
35 2 1 74 137 107 218 234 304 223 220 102 69 40 -37 -87 -261 -101 -314 -272 -111 -106 97 96 166 192 53 68 120 162 163 133 99 102 228 71 191 140 57 -2 27 98 55 226 227
76 67 52 1 13 80 33 79 184 240 136 200 146 223 42 -36 -86 -237 -147 -277 -627 -13 25 45 124 201 138 155 42 119 110 101 134 104 161 257 206 229 92 70 14 79 103 146 205
100 57 60 52 3 25 39 104 161 77 101 123 179 171 216 175 71 -24 -58 -56 -131 -281 100 -39 115 243 91 246 138 76 84 125 114 159 124 205 233 207 181 115 57 16 83 99 162

GFSSW_con_3kmhel_030.txt.gz
Helicity
53 55 59 63 65 63 62 60 56 48 38 44 48 43 28 26 18 -19 -1 60 8 58 88 145 126 123 126 69 48 40 -21 57 -36 -47 -46 53 5 32 -26 41 32 4 36 27 44
47 51 48 48 52 56 55 49 52 51 47 40 35 41 25 20 -35 6 188 29 47 110 117 138 113 107 110 53 17 34 -13 6 -14 4 38 81 130 93 -38 36 -47 1 106 189 124
46 50 50 49 44 43 44 45 37 40 45 43 43 29 33 11 -5 8 40 19 73 158 122 151 125 109 44 73 -6 -21 74 12 24 22 32 87 48 84 39 -27 4 129 220 249 137
52 50 44 41 47 47 41 41 39 34 28 30 35 37 47 37 23 34 31 70 69 165 149 104 90 83 31 -5 18 14 67 56 38 -13 -10 69 104 45 74 -3 47 182 312 299 157
68 69 63 51 42 46 45 37 33 35 23 7 5 29 56 43 49 54 -0 5 75 154 110 92 80 69 -11 -33 44 58 23 27 62 1 30 90 170 132 96 -34 86 214 319 264 153
92 101 101 102 92 93 76 24 25 19 11 -1 -16 38 79 45 18 46 71 81 90 90 77 30 41 99 55 -49 27 -9 21 81 47 55 5 128 231 210 48 24 162 263 244 219 138
79 99 110 135 140 148 132 59 27 9 11 -15 47 117 114 64 40 125 78 75 96 67 72 22 125 29 -15 28 7 -13 -13 15 1 -15 22 142 148 269 40 217 180 207 177 184 54
89 101 96 119 140 183 207 154 92 33 -20 43 127 162 73 9 2 -86 -0 78 13 10 73 -16 90 68 22 45 42 -14 -31 -70 -27 9 -13 193 285 192 229 233 193 204 163 143 51
68 92 124 131 168 194 207 228 113 96 78 105 158 129 44 43 43 -16 22 126 92 -23 -21 58 123 83 17 -31 -11 2 -60 -43 -23 -13 -0 113 133 284 302 273 239 231 165 122 67
49 71 96 127 169 221 210 124 50 104 103 91 158 96 61 53 72 129 25 42 79 73 84 74 182 121 43 -62 -0 43 17 -37 -38 -8 5 44 49 83 316 296 375 287 169 157 63
57 66 96 100 180 161 133 54 97 104 131 111 112 93 81 56 75 96 117 107 130 180 197 174 162 71 69 105 73 36 23 -13 -32 7 41 59 30 107 295 243 326 311 222 176 86
74 75 88 134 199 73 4 32 35 33 16 29 -18 -22 -6 172 170 145 135 275 223 248 264 281 197 105 91 118 112 78 5 -44 -21 -4 50 45 -16 69 298 315 353 363 274 170 30
85 101 85 164 189 77 25 15 76 9 -19 -5 117 117 101 167 52 102 176 297 352 331 261 251 134 115 37 131 115 75 -102 -31 4 55 95 53 29 53 94 166 73 114 267 160 42
55 71 89 111 31 79 43 62 59 24 7 2 47 119 165 194 188 59 136 318 332 249 315 146 67 84 141 8 115 23 80 36 -25 52 51 78 -70 -17 -62 107 74 109 213 195 81
25 35 41 24 6 98 70 70 101 52 52 81 135 87 90 108 219 190 250 255 294 357 301 240 202 200 73 118 121 56 126 73 53 37 23 56 8 -105 70 6 60 90 254 256 225
24 58 53 -36 31 35 33 119 101 145 79 216 193 197 150 101 161 234 385 296 259 272 227 212 151 131 125 167 142 161 124 131 102 61 -25 -144 -99 -84 -56 11 71 68 119 230 236
19 57 28 -33 -9 66 65 161 222 206 271 299 338 300 240 243 175 159 236 395 402 343 170 156 92 121 140 138 98 130 105 73 86 97 -62 -35 -114 -48 -36 80 69 143 171 229 284
18 44 -11 -31 52 49 90 273 269 242 296 279 290 360 249 344 285 300 189 299 323 358 229 240 170 90 164 142 165 107 124 186 175 152 45 109 -122 -70 -170 42 16 73 192 244 273
6 21 -37 -34 43 65 185 298 284 324 308 334 311 314 396 358 315 369 343 233 316 305 206 195 185 134 199 210 172 236 150 123 191 208 153 187 -38 -98 9 17 6 13 61 153 278
7 6 -72 -8 13 55 153 306 368 399 433 420 378 324 451 443 422 454 463 464 410 259 205 172 145 150 65 242 163 160 258 268 255 89 -31 157 114 102 119 44 52 34 49 102 156
6 -53 -52 10 -31 72 154 255 252 317 376 441 455 412 366 443 387 535 582 405 543 394 264 264 196 227 210 201 168 277 252 256 182 258 94 -2 57 89 42 -25 44 2 33 87 122
-6 -43 26 29 -27 -4 130 157 144 142 78 189 235 247 196 260 368 475 495 543 552 591 445 314 276 211 189 197 109 123 221 332 297 226 228 64 -25 -4 -60 116 192 72 73 37 28
5 -10 3 20 -55 10 51 48 44 137 141 195 211 143 171 169 294 273 346 288 410 494 551 475 413 324 310 158 176 192 157 250 192 240 38 162 56 -59 -52 43 94 -0 34 84 107
81 14 5 49 -17 -38 -24 -2 85 45 61 194 234 171 137 166 134 234 309 246 305 265 384 407 413 371 350 328 383 256 208 183 200 223 43 -55 -28 135 53 -11 6 13 49 50 -12
71 59 54 7 44 28 -11 -58 7 73 22 38 139 312 236 88 100 70 121 133 159 174 181 264 452 421 363 482 352 307 261 208 221 157 141 -4 -54 -17 17 -7 -32 7 70 59 92
80 79 97 67 21 1 21 -22 -26 3 6 60 11 171 235 127 56 -14 1 -30 35 124 116 104 301 305 306 327 358 213 221 229 202 164 154 1 21 96 1 47 92 46 56 73 -10
85 96 125 118 57 25 16 15 20 3 21 19 61 139 186 98 49 43 2 31 25 -12 52 80 100 190 169 257 343 202 102 159 172 198 198 52 49 137 104 108 97 69 97 67 35

GFSSW_con_3kmhel_033.txt.gz
Helicity
52 50 49 43 36 32 35 43 52 61 60 45 43 38 56 32 -0 -17 30 54 -2 55 43 102 106 102 80 28 32 7 2 35 -51 -74 -81 12 -21 -24 -23 31 -12 13 9 58 31
51 51 47 42 41 36 26 23 30 39 47 54 42 42 35 37 -39 -9 122 37 56 113 88 98 115 104 75 26 31 5 39 21 -31 -7 23 33 28 40 -26 44 -33 -13 80 188 98
54 53 52 54 55 50 41 27 15 26 31 35 44 41 44 33 -14 13 58 14 82 130 69 95 125 106 73 60 25 19 -35 -27 -17 48 -16 45 53 15 -0 18 26 97 190 221 146
58 55 58 63 71 68 59 48 37 13 10 11 17 31 62 33 30 40 72 79 66 91 98 124 85 80 52 33 30 63 70 49 42 8 10 15 47 51 68 -39 60 142 255 265 162
62 58 61 70 89 94 78 49 26 12 5 -7 -7 9 36 31 -11 19 28 20 64 98 93 104 107 100 37 5 12 61 52 15 44 45 -30 18 79 51 69 54 -3 169 237 232 152
73 74 70 78 93 109 109 57 37 22 14 -12 -4 35 63 34 16 31 22 61 93 96 74 44 77 105 39 -3 -52 10 49 54 43 40 -5 45 47 60 21 99 86 141 233 197 154
60 73 84 82 112 138 129 97 70 42 15 -10 43 92 94 21 66 70 65 61 76 134 137 64 61 44 37 -1 -2 41 45 44 38 7 -1 11 8 170 48 147 143 118 166 176 107
38 55 64 84 120 159 127 103 85 58 50 64 102 140 63 35 21 103 53 82 22 83 34 78 114 -14 88 102 33 31 -18 -35 7 7 21 23 92 115 147 176 175 151 151 150 133
48 70 81 93 151 175 124 73 21 88 113 122 153 133 43 79 70 19 29 72 48 43 86 25 102 81 75 41 13 23 -5 -12 -6 4 15 -21 47 20 138 214 199 189 153 111 117
55 73 95 134 197 177 128 -5 -15 53 79 93 138 90 67 59 55 122 77 82 139 66 108 150 140 91 32 -45 -13 16 -20 -6 -28 29 17 -28 126 36 75 191 208 187 153 128 92
54 62 79 163 191 168 74 -17 4 28 77 88 102 87 110 141 66 140 153 206 197 152 197 117 158 129 67 65 49 55 12 -24 3 20 9 -14 64 21 50 68 158 160 130 143 106
59 72 81 151 174 78 36 23 19 30 40 40 8 -10 50 201 161 161 180 241 255 226 177 211 187 80 112 66 28 35 8 -33 -16 33 16 9 8 12 56 123 162 253 176 162 86
51 57 100 118 85 63 36 73 78 42 -31 21 92 104 72 123 176 160 188 230 208 217 236 229 112 102 88 48 24 -12 -93 -12 3 54 24 6 -27 10 19 57 80 112 105 62 64
42 42 93 87 -57 50 26 66 53 28 -25 9 71 119 170 245 121 160 120 262 282 184 191 84 150 49 121 48 26 -53 -10 36 3 24 -14 28 -10 -56 15 -7 58 71 100 50 46
41 37 49 -35 -59 -34 43 66 57 39 28 80 132 94 135 208 258 179 128 234 184 267 337 222 176 208 52 122 66 14 10 -6 24 16 35 4 -0 -69 34 -73 -9 86 93 102 34
39 62 18 -63 -43 -0 55 98 60 106 67 188 169 168 151 114 266 231 274 213 209 202 129 116 164 128 132 36 85 67 91 55 79 43 -38 -34 10 -24 -107 2 -9 39 42 96 130
45 91 -35 -84 -45 24 48 113 144 199 280 280 318 280 250 241 163 172 231 319 337 300 200 97 123 105 86 84 18 32 21 84 79 18 -26 32 -27 -12 15 -52 9 14 66 82 165
55 47 -18 -38 -9 4 26 176 216 296 363 327 288 353 257 280 208 220 144 255 236 229 200 188 151 130 105 63 152 63 53 186 93 9 7 69 -25 -11 -81 -48 -11 6 42 18 43
46 39 -7 -22 5 -26 13 204 349 396 374 403 439 357 269 271 307 309 225 144 207 302 259 135 113 119 179 151 108 134 77 48 129 126 77 30 -43 -33 55 11 13 4 33 12 37
48 16 4 24 -16 -55 -1 150 299 342 396 367 422 415 469 404 335 348 357 396 341 320 320 210 156 126 29 133 71 117 184 225 96 -3 7 36 35 100 47 106 64 30 44 47 31
42 5 25 31 -22 -59 -41 75 88 151 247 347 438 474 495 483 389 390 401 321 465 382 344 249 211 198 157 150 165 226 134 163 115 207 24 52 29 -0 5 51 69 55 40 -9 13
46 8 24 26 9 -54 -57 13 22 53 59 118 172 247 341 425 462 366 368 408 614 505 403 322 259 236 120 131 72 119 158 171 250 175 89 95 19 42 -29 -28 23 20 11 44 38
57 32 26 19 12 -10 -10 -61 -35 78 127 128 147 216 139 292 395 318 376 354 468 505 479 456 334 212 222 187 155 117 91 95 92 109 38 70 -9 15 80 51 68 35 86 81 27
73 59 39 49 16 9 2 -38 -36 12 23 45 142 136 158 99 137 252 328 289 367 410 537 458 414 370 215 210 315 268 196 106 104 149 73 -63 -4 62 72 7 29 79 146 75 43
101 106 79 59 49 21 12 -13 -12 -10 36 83 25 129 250 127 59 132 138 184 159 269 345 432 467 516 411 437 367 366 369 373 243 129 49 -21 -45 -38 8 -15 -38 -31 6 50 70
108 109 121 77 45 38 28 -0 3 9 -8 54 48 58 81 151 186 54 124 103 129 176 223 307 387 427 448 465 409 336 317 292 296 259 212 48 -37 77 56 34 14 -9 -18 19 48
123 123 151 123 70 52 46 24 17 32 9 11 35 124 107 97 123 141 147 132 138 134 140 226 278 311 292 396 396 194 214 242 230 187 169 28 20 56 11 16 24 46 67 44 16